Wetbulb
69.33 72.98 73.56 73.48 73.21 72.91 72.73 72.63 72.82 73.24 73.86 73.98 73.94 74.33 74.52 74.42 74.04 73.56 73.30 73.18 73.27 73.52 73.34 73.42 72.72 73.12 73.17 72.65 72.50 72.75 72.78 72.40 72.15 72.35 72.40 73.08 72.75 71.84 71.12 71.01 71.30 70.14 71.00
70.58 72.60 72.93 72.97 72.92 73.07 73.08 72.88 72.95 73.41 74.03 74.04 73.97 74.29 74.31 74.26 73.83 73.41 73.56 73.40 73.22 73.50 72.80 73.12 72.57 72.37 72.53 72.43 72.42 72.16 72.25 72.17 71.50 71.70 72.26 72.35 72.46 71.59 71.07 70.70 71.08 70.98 71.99
70.94 72.48 72.93 72.36 72.74 72.84 73.21 73.39 73.37 73.85 74.16 74.08 74.16 74.17 74.23 74.08 73.91 73.58 73.45 73.15 73.09 73.42 72.90 72.45 72.42 71.85 71.64 72.03 71.94 71.82 71.97 71.85 71.12 70.91 70.71 67.86 68.05 70.31 70.19 70.17 70.48 70.97 71.70
71.29 72.15 72.46 72.35 72.41 72.51 72.69 73.18 73.31 73.76 73.88 73.92 74.11 74.18 74.09 74.00 73.76 73.46 72.92 72.92 73.09 73.30 72.82 72.42 71.93 71.57 71.31 71.20 71.22 71.35 71.48 71.33 70.76 69.90 66.96 68.11 69.77 70.01 69.87 69.73 69.58 69.94 70.58
70.91 71.94 72.18 71.96 71.82 72.43 72.68 72.90 73.12 73.19 73.22 73.40 73.65 74.04 74.02 73.98 73.54 73.28 72.74 72.82 73.18 73.22 72.50 72.40 71.67 71.11 70.70 70.18 70.20 70.58 70.54 69.99 69.44 67.97 65.73 66.93 68.63 71.44 70.75 70.26 69.48 69.30 69.19
70.07 71.40 71.33 71.23 71.49 72.22 72.73 72.94 72.95 72.64 72.22 72.63 73.07 73.78 73.97 73.88 73.32 73.04 72.68 73.04 73.38 72.93 72.11 71.59 70.92 70.50 69.59 69.27 69.34 69.21 68.74 68.50 67.96 64.23 65.58 69.27 68.32 71.10 71.45 70.18 69.80 69.34 69.73
69.38 70.82 70.99 70.47 71.37 72.03 72.68 72.79 72.44 72.00 71.68 72.15 72.69 72.94 73.36 73.50 73.16 72.44 72.35 72.73 72.88 72.75 71.67 70.84 70.35 69.36 68.60 68.22 68.12 67.69 67.26 67.12 64.83 63.77 66.64 67.74 69.04 71.30 71.10 70.14 69.70 69.44 69.42
69.04 70.31 70.67 71.50 71.33 71.62 72.03 71.90 71.26 71.12 71.28 71.52 71.95 72.43 72.89 72.57 72.39 72.30 72.19 71.96 71.99 71.82 71.42 70.54 69.53 68.87 68.17 68.02 67.54 66.98 66.49 66.86 65.61 64.58 66.60 67.05 70.51 71.33 71.07 70.15 69.90 69.97 69.38
69.21 69.49 70.15 71.19 71.45 70.95 70.44 70.35 70.14 70.52 70.86 70.77 71.12 71.51 71.55 71.15 71.33 71.90 71.82 71.82 71.54 70.84 70.17 69.61 68.90 68.38 68.03 67.31 66.83 66.08 65.48 66.27 63.40 63.60 67.43 67.18 71.31 71.16 70.56 69.84 69.61 69.65 69.42
68.55 68.79 69.17 70.22 70.97 70.62 70.39 69.36 69.51 69.92 70.12 70.27 70.66 70.46 70.08 70.32 70.99 71.33 71.23 71.37 70.98 70.32 69.62 69.29 68.76 67.88 67.31 66.59 66.28 65.75 65.78 66.13 62.66 63.70 65.82 65.92 70.65 70.90 70.02 69.66 69.59 69.47 69.22
67.29 67.90 68.83 69.29 69.88 69.79 69.67 69.95 69.94 70.25 70.12 69.78 70.07 69.53 68.35 69.25 69.99 70.71 70.40 70.44 70.15 69.01 68.79 68.89 68.25 67.43 66.73 66.56 66.43 66.36 66.57 64.40 63.55 64.16 65.47 66.77 70.38 70.88 70.14 70.31 70.08 69.80 69.50
64.30 66.61 68.16 68.70 68.96 69.02 69.95 69.27 68.89 69.75 69.34 69.38 69.11 68.55 67.83 67.60 68.17 70.02 69.85 69.36 69.42 68.16 68.40 68.35 67.88 67.37 67.07 65.06 63.98 65.54 63.59 63.66 63.22 65.54 65.41 66.97 70.16 71.64 70.61 70.61 70.14 69.86 69.62
63.65 66.08 67.74 68.33 68.84 68.53 68.76 68.51 68.35 68.89 68.75 68.42 67.92 67.36 65.93 66.87 67.15 67.69 66.92 69.03 67.72 68.50 67.07 67.61 66.95 66.50 65.79 65.15 64.56 64.74 64.81 62.99 63.28 65.29 65.01 67.21 69.60 72.01 70.97 70.42 70.13 69.78 69.43
63.31 64.53 67.00 68.10 68.26 68.05 68.31 67.76 67.72 67.90 68.08 67.87 67.85 67.13 65.91 64.73 64.92 64.96 65.91 66.52 66.54 66.47 65.03 65.28 65.14 65.47 65.20 65.26 65.22 65.14 65.73 64.51 64.25 65.59 65.08 66.31 68.21 71.74 71.91 70.83 70.01 69.86 69.80
63.40 63.81 65.39 66.92 67.70 67.46 67.18 67.31 67.09 66.96 67.29 67.45 67.49 67.31 66.40 64.27 64.51 64.61 65.19 66.32 66.38 65.73 65.51 64.35 64.63 64.96 64.56 64.60 64.86 65.55 65.88 66.01 65.54 65.19 65.18 65.64 66.44 69.51 72.17 72.01 71.00 70.11 70.13
64.81 64.29 65.30 65.46 66.79 66.11 66.35 65.97 66.41 66.47 66.66 66.62 66.89 67.67 66.12 65.31 64.86 63.63 64.87 65.33 65.36 65.29 65.67 65.12 64.66 64.39 64.40 64.40 64.42 64.84 65.44 65.71 65.38 64.26 65.24 65.64 65.02 66.73 69.54 72.06 72.61 71.95 71.04
65.83 66.00 65.17 65.20 65.66 65.06 65.15 64.82 65.20 65.72 66.31 66.13 66.32 66.92 67.50 65.54 65.10 63.77 64.98 65.10 65.23 64.62 64.17 64.02 63.74 63.82 63.63 64.42 64.44 64.28 64.14 64.59 64.81 64.72 64.01 64.59 65.20 64.11 65.43 68.54 70.71 71.71 71.81
66.78 66.27 66.20 66.74 65.94 65.30 65.84 65.08 64.77 65.04 65.38 65.69 65.83 66.59 67.42 66.65 65.60 64.57 63.85 65.52 65.76 64.08 63.84 63.34 63.02 62.80 63.23 62.93 63.67 63.80 64.18 63.56 63.64 63.61 63.96 63.79 64.27 65.35 64.24 64.70 66.67 69.21 70.49
67.21 66.98 66.52 66.71 66.18 66.04 65.71 66.01 64.72 64.41 65.08 65.03 65.62 65.75 66.75 67.51 66.66 65.90 65.33 64.62 64.77 64.73 63.59 62.99 61.73 61.51 61.62 62.38 62.66 62.69 62.97 63.08 63.59 64.98 63.67 63.64 63.53 64.04 64.71 63.72 63.86 64.72 66.93
67.25 67.51 67.24 67.31 67.17 66.75 66.61 67.24 65.94 64.44 64.99 65.08 64.95 65.63 66.10 67.43 67.37 65.77 65.95 65.24 64.68 64.39 63.43 63.37 62.22 61.58 60.69 61.68 63.52 63.51 62.42 62.75 63.01 63.30 64.13 64.77 64.42 64.25 63.74 64.27 63.70 63.50 62.69
67.02 66.89 66.93 66.83 67.20 67.14 66.48 65.82 66.50 64.49 65.00 64.94 64.80 65.84 65.66 66.98 67.21 66.43 66.11 64.37 64.98 64.48 64.01 63.42 62.94 61.83 62.05 61.06 60.21 59.56 59.78 60.16 60.53 62.17 62.16 62.87 63.28 63.92 63.19 63.47 63.79 63.91 63.82
66.33 66.78 66.81 66.94 67.28 67.53 67.53 66.96 67.32 67.48 66.30 66.27 65.88 65.30 65.99 66.40 66.71 66.38 65.51 65.07 64.42 64.81 62.54 62.64 62.83 60.58 62.31 61.41 59.73 57.31 56.33 58.05 59.18 61.15 61.14 61.90 62.09 62.56 62.16 62.74 62.11 63.27 63.85
65.85 66.35 66.78 67.05 67.40 67.77 67.96 67.71 65.89 66.20 65.57 65.18 66.01 66.11 65.50 66.59 66.69 66.33 65.63 64.98 64.78 64.13 63.60 62.21 62.40 62.29 62.25 60.33 60.75 59.22 54.30 54.54 54.95 57.17 58.61 61.15 61.51 60.18 61.42 60.91 61.29 62.21 63.76
65.78 67.07 67.20 67.29 67.32 68.20 68.20 67.56 66.27 65.04 65.13 67.12 67.05 67.38 66.96 66.52 66.87 66.95 66.28 65.34 64.38 64.73 64.00 63.26 63.10 62.77 61.93 60.65 59.42 62.14 58.74 57.10 54.58 54.22 58.26 59.55 58.95 59.24 59.32 60.34 61.33 62.12 62.68
65.40 66.58 67.30 67.21 67.21 68.08 68.05 67.90 67.03 65.90 65.98 66.35 67.54 67.09 67.17 66.67 66.69 66.83 66.82 65.98 64.95 64.47 64.48 63.79 63.04 61.90 62.41 62.18 60.87 58.93 61.32 59.33 57.55 56.67 56.18 56.53 58.67 60.65 60.26 60.97 61.42 62.05 63.26
62.88 65.88 66.89 66.67 66.59 67.72 67.91 67.72 67.24 66.35 65.95 65.75 65.99 66.02 66.47 67.17 66.63 66.80 66.76 66.59 66.15 65.44 64.57 64.06 63.23 62.79 62.80 62.59 62.58 61.54 60.59 59.85 60.04 58.24 56.76 58.31 56.53 58.51 61.63 62.75 62.34 62.41 62.12
MSLP
1013.35 1013.17 1013.54 1013.59 1013.75 1014.26 1014.54 1014.85 1015.14 1015.38 1015.71 1015.97 1016.14 1016.35 1016.61 1016.88 1017.04 1017.06 1017.14 1017.44 1017.66 1017.77 1017.85 1018.01 1018.14 1018.27 1018.41 1018.59 1018.86 1019.08 1019.30 1019.45 1019.53 1019.68 1019.75 1019.91 1020.14 1020.35 1020.42 1020.53 1020.52 1020.61 1020.68
1012.31 1012.93 1013.43 1013.54 1013.71 1014.27 1014.74 1015.06 1015.30 1015.62 1015.88 1016.09 1016.27 1016.50 1016.69 1016.87 1017.12 1017.31 1017.55 1017.76 1017.95 1018.08 1018.25 1018.40 1018.52 1018.67 1018.86 1019.12 1019.37 1019.55 1019.66 1019.85 1020.01 1020.13 1020.20 1020.31 1020.54 1020.77 1020.93 1021.08 1021.15 1021.02 1021.10
1012.23 1012.79 1013.26 1013.43 1013.65 1014.23 1014.84 1015.21 1015.45 1015.84 1016.11 1016.35 1016.53 1016.70 1016.83 1017.02 1017.26 1017.59 1017.90 1018.13 1018.29 1018.42 1018.60 1018.78 1018.93 1019.07 1019.29 1019.50 1019.68 1019.85 1020.01 1020.19 1020.38 1020.58 1020.79 1020.99 1021.12 1021.18 1021.35 1021.47 1021.47 1021.40 1021.42
1012.11 1012.62 1013.16 1013.36 1013.61 1014.13 1014.73 1015.20 1015.60 1016.05 1016.20 1016.48 1016.79 1016.98 1017.16 1017.43 1017.64 1017.88 1018.06 1018.24 1018.46 1018.64 1018.83 1019.05 1019.23 1019.44 1019.68 1019.86 1020.04 1020.19 1020.37 1020.58 1020.77 1020.89 1021.01 1021.11 1021.18 1021.39 1021.52 1021.62 1021.69 1021.75 1021.76
1012.52 1012.66 1013.07 1013.35 1013.65 1013.99 1014.57 1015.25 1015.69 1016.05 1016.50 1016.63 1016.90 1017.21 1017.45 1017.71 1017.96 1018.22 1018.39 1018.53 1018.67 1018.85 1019.03 1019.20 1019.45 1019.77 1020.02 1020.22 1020.38 1020.54 1020.70 1020.81 1020.95 1021.10 1021.27 1021.29 1021.36 1021.43 1021.61 1021.73 1021.84 1021.94 1022.01
1012.68 1012.92 1013.13 1013.45 1013.77 1014.14 1014.57 1015.16 1015.79 1016.11 1016.48 1016.74 1017.03 1017.31 1017.64 1017.87 1018.07 1018.36 1018.62 1018.74 1018.87 1019.02 1019.22 1019.39 1019.64 1019.93 1020.13 1020.34 1020.54 1020.75 1020.91 1021.02 1021.10 1021.25 1021.36 1021.40 1021.44 1021.55 1021.73 1021.84 1021.90 1022.02 1022.11
1012.74 1013.03 1013.30 1013.64 1013.97 1014.25 1014.66 1015.11 1015.68 1016.31 1016.53 1016.85 1017.11 1017.37 1017.74 1018.03 1018.24 1018.50 1018.68 1018.87 1019.09 1019.31 1019.51 1019.66 1019.85 1020.09 1020.28 1020.40 1020.48 1020.61 1020.79 1020.88 1020.94 1020.97 1021.29 1021.41 1021.28 1021.34 1021.60 1021.76 1021.91 1022.05 1022.16
1012.67 1013.08 1013.50 1013.75 1014.08 1014.48 1014.76 1015.13 1015.70 1016.21 1016.76 1016.95 1017.21 1017.47 1017.75 1018.05 1018.35 1018.58 1018.79 1019.02 1019.27 1019.56 1019.81 1019.89 1020.04 1020.22 1020.44 1020.57 1020.73 1020.87 1021.06 1021.10 1021.07 1021.15 1021.30 1021.53 1021.25 1021.32 1021.59 1021.84 1022.05 1022.15 1022.20
1012.88 1013.22 1013.62 1013.93 1014.19 1014.50 1014.96 1015.28 1015.58 1016.08 1016.57 1017.07 1017.33 1017.59 1017.84 1018.12 1018.41 1018.67 1018.88 1019.13 1019.37 1019.66 1019.95 1020.16 1020.29 1020.38 1020.53 1020.66 1020.81 1020.86 1021.04 1021.14 1021.13 1021.18 1021.29 1021.66 1021.43 1021.30 1021.38 1021.70 1021.93 1022.09 1022.17
1013.12 1013.35 1013.61 1013.98 1014.38 1014.66 1015.03 1015.37 1015.74 1016.05 1016.42 1016.86 1017.29 1017.62 1017.94 1018.20 1018.41 1018.67 1018.95 1019.19 1019.44 1019.71 1019.98 1020.26 1020.39 1020.44 1020.51 1020.58 1020.67 1020.72 1020.86 1020.89 1020.83 1020.81 1020.95 1021.35 1021.51 1021.24 1021.30 1021.44 1021.70 1021.90 1022.05
1013.34 1013.35 1013.50 1013.74 1014.21 1014.62 1015.02 1015.44 1015.83 1016.21 1016.55 1016.80 1017.22 1017.57 1017.94 1018.24 1018.43 1018.62 1018.90 1019.18 1019.45 1019.72 1019.92 1020.08 1020.23 1020.34 1020.36 1020.38 1020.45 1020.53 1020.64 1020.71 1020.66 1020.66 1020.74 1020.82 1021.09 1021.08 1021.11 1021.19 1021.34 1021.51 1021.66
1012.96 1013.27 1013.28 1013.61 1013.93 1014.44 1014.77 1015.34 1015.82 1016.23 1016.61 1016.96 1017.19 1017.54 1017.81 1018.10 1018.39 1018.59 1018.83 1019.14 1019.44 1019.73 1019.96 1020.14 1020.28 1020.36 1020.39 1020.40 1020.37 1020.37 1020.45 1020.62 1020.54 1020.26 1020.30 1020.52 1020.87 1020.85 1020.84 1020.97 1021.04 1021.22 1021.43
1011.91 1012.81 1013.14 1013.43 1013.73 1014.11 1014.34 1015.07 1015.61 1016.06 1016.48 1016.81 1017.13 1017.45 1017.85 1018.18 1018.47 1018.76 1019.03 1019.24 1019.59 1019.82 1020.02 1020.13 1020.36 1020.46 1020.49 1020.46 1020.41 1020.32 1020.24 1020.50 1020.41 1020.12 1019.98 1020.28 1020.62 1020.76 1020.79 1020.87 1020.96 1021.00 1021.14
1011.54 1012.06 1012.66 1013.19 1013.66 1013.95 1014.26 1014.78 1015.20 1015.62 1016.16 1016.53 1016.83 1017.19 1017.65 1018.12 1018.43 1018.72 1019.00 1019.21 1019.46 1019.70 1020.08 1020.23 1020.39 1020.42 1020.49 1020.46 1020.35 1020.17 1020.01 1020.06 1020.32 1020.11 1020.05 1020.37 1020.61 1020.65 1020.62 1020.63 1020.71 1020.79 1020.88
1010.93 1011.58 1012.10 1012.64 1013.22 1013.63 1014.11 1014.52 1014.98 1015.31 1015.65 1016.07 1016.51 1016.86 1017.15 1017.61 1017.99 1018.37 1018.65 1018.97 1019.22 1019.49 1019.79 1020.13 1020.25 1020.34 1020.40 1020.38 1020.30 1020.19 1019.98 1019.89 1020.02 1019.97 1020.07 1020.05 1020.33 1020.39 1020.41 1020.40 1020.45 1020.52 1020.58
1010.14 1010.77 1011.59 1012.12 1012.57 1013.05 1013.67 1014.09 1014.43 1014.85 1015.28 1015.70 1016.08 1016.34 1016.79 1017.09 1017.40 1017.82 1018.15 1018.53 1018.91 1019.13 1019.40 1019.63 1019.88 1020.06 1020.15 1020.18 1020.11 1019.98 1019.86 1019.80 1019.73 1019.81 1019.80 1019.85 1019.89 1020.03 1020.17 1020.18 1020.15 1020.19 1020.22
1008.77 1009.73 1010.45 1011.37 1012.13 1012.60 1013.05 1013.50 1013.93 1014.26 1014.79 1015.22 1015.49 1015.88 1016.26 1016.65 1016.96 1017.27 1017.65 1017.92 1018.19 1018.61 1019.01 1019.40 1019.69 1019.88 1020.02 1019.91 1019.92 1019.69 1019.58 1019.45 1019.43 1019.30 1019.41 1019.50 1019.61 1019.85 1019.91 1019.85 1019.83 1019.82 1019.84
1008.33 1009.06 1009.88 1010.44 1011.31 1011.97 1012.49 1012.95 1013.28 1013.73 1014.18 1014.53 1014.97 1015.31 1015.63 1016.07 1016.46 1016.90 1017.17 1017.33 1017.57 1018.11 1018.49 1018.87 1019.29 1019.62 1019.73 1019.72 1019.63 1019.38 1019.12 1019.12 1019.03 1018.98 1018.90 1018.96 1019.16 1019.21 1019.35 1019.41 1019.39 1019.38 1019.37
1007.04 1007.97 1009.05 1009.71 1010.17 1010.96 1011.82 1012.38 1012.71 1013.12 1013.59 1013.89 1014.34 1014.72 1015.05 1015.38 1015.81 1016.27 1016.53 1016.85 1017.23 1017.55 1017.90 1018.29 1018.63 1018.89 1019.19 1019.27 1019.25 1019.14 1018.94 1018.87 1018.56 1018.35 1018.40 1018.45 1018.46 1018.50 1018.61 1018.57 1018.64 1018.75 1018.77
1005.94 1006.83 1007.74 1008.62 1009.40 1010.11 1011.00 1011.82 1012.41 1012.79 1013.03 1013.25 1013.55 1013.92 1014.27 1014.63 1015.04 1015.59 1015.92 1016.27 1016.76 1017.19 1017.45 1017.73 1018.01 1018.26 1018.32 1018.47 1018.67 1018.66 1018.50 1018.42 1018.22 1018.16 1017.83 1017.71 1017.77 1017.75 1017.85 1017.94 1017.97 1018.07 1018.11
1005.35 1006.04 1006.73 1007.52 1008.32 1009.35 1009.94 1010.60 1011.43 1011.70 1012.36 1012.70 1012.83 1013.03 1013.45 1013.82 1014.28 1014.80 1015.24 1015.80 1016.00 1016.41 1016.61 1017.04 1017.47 1017.78 1017.88 1018.09 1018.68 1018.65 1018.42 1018.04 1017.81 1017.56 1017.38 1017.24 1017.14 1017.04 1017.18 1017.19 1017.25 1017.34 1017.35
1004.25 1004.63 1005.70 1006.29 1006.95 1007.75 1008.43 1008.98 1009.89 1010.78 1011.39 1011.93 1012.26 1012.23 1012.53 1012.93 1013.35 1013.80 1014.34 1014.82 1015.30 1015.72 1015.99 1016.33 1016.69 1017.14 1017.11 1017.50 1018.11 1018.80 1018.57 1017.90 1017.06 1016.68 1016.78 1016.75 1016.49 1016.39 1016.40 1016.42 1016.59 1016.66 1016.73
1002.96 1003.85 1004.32 1004.97 1005.66 1006.37 1006.98 1008.12 1009.18 1010.25 1010.94 1011.35 1011.35 1011.48 1011.72 1012.10 1012.50 1012.87 1013.27 1013.88 1014.36 1014.81 1015.08 1015.51 1015.85 1016.15 1016.42 1017.05 1016.94 1017.51 1018.28 1017.93 1017.41 1016.30 1016.00 1015.96 1015.89 1015.92 1015.84 1015.92 1015.97 1016.10 1016.20
1001.11 1001.95 1002.54 1003.37 1003.98 1004.77 1005.80 1006.74 1007.26 1007.82 1008.75 1008.91 1009.63 1010.34 1010.90 1011.25 1011.70 1012.07 1012.41 1012.93 1013.55 1014.02 1014.31 1014.38 1014.87 1015.07 1015.79 1016.09 1016.84 1016.37 1016.33 1016.59 1017.20 1016.90 1016.11 1015.72 1015.61 1015.68 1015.62 1015.73 1015.64 1015.54 1015.65
999.54 1000.51 1001.30 1002.07 1002.93 1003.41 1004.35 1005.02 1005.74 1006.34 1006.76 1007.58 1008.67 1009.34 1009.90 1010.36 1010.64 1011.13 1011.60 1012.19 1012.59 1013.05 1013.25 1013.63 1014.10 1014.42 1014.68 1015.11 1015.35 1015.76 1016.02 1016.14 1016.35 1016.73 1016.41 1015.96 1015.59 1015.28 1015.24 1015.28 1015.19 1015.15 1015.01
998.50 998.96 1000.03 1000.96 1001.56 1002.46 1003.32 1003.97 1004.76 1005.14 1005.83 1006.79 1007.48 1008.21 1008.75 1009.16 1009.80 1010.24 1010.58 1011.03 1011.49 1012.06 1012.32 1012.62 1013.09 1013.57 1013.77 1014.04 1014.18 1014.55 1014.64 1014.90 1015.13 1015.83 1016.17 1015.58 1015.74 1015.21 1014.85 1014.71 1014.75 1014.64 1014.76
Wind_Speed
9 13 16 19 19 16 15 14 14 13 14 16 16 16 16 16 16 16 17 16 16 16 17 17 17 18 19 20 20 18 18 17 16 15 14 16 19 18 17 15 13 11 15
18 17 18 19 21 18 16 15 15 13 13 14 14 15 16 17 16 17 16 15 15 16 17 16 17 18 19 18 16 16 17 17 16 15 15 16 17 16 16 15 13 11 15
18 18 16 20 21 20 17 16 15 14 14 13 13 13 14 16 16 16 14 14 14 15 16 16 16 17 17 15 14 14 14 14 15 15 15 6 8 16 16 15 13 13 15
17 16 15 20 21 21 18 17 15 14 15 14 13 13 13 14 14 14 13 13 14 14 15 15 15 15 14 12 11 11 11 12 11 9 5 5 10 15 15 15 14 13 12
13 14 15 20 20 22 20 17 15 15 13 14 14 13 13 14 13 12 11 11 13 14 15 14 14 13 11 11 10 10 9 7 7 8 5 6 5 12 15 14 13 12 10
12 12 17 19 20 21 21 18 16 15 14 13 14 14 13 14 14 13 10 10 11 13 13 12 11 10 11 11 10 9 7 5 4 2 5 7 6 11 13 12 12 12 10
11 11 14 17 19 20 20 20 17 14 14 14 14 14 13 12 12 11 11 11 11 11 11 10 7 8 8 8 8 8 6 3 2 3 5 5 7 14 14 13 12 11 11
14 14 12 17 18 18 19 19 17 16 12 13 13 13 13 12 11 11 11 11 10 10 9 8 8 7 6 5 4 3 4 2 3 2 5 3 10 14 13 11 10 9 9
12 15 13 11 14 17 16 16 17 17 15 12 12 12 12 12 11 10 10 11 10 10 9 8 6 4 4 4 3 1 1 2 1 2 6 3 11 14 15 13 12 10 10
13 14 15 15 12 11 12 15 15 16 16 15 13 12 11 12 12 11 10 11 11 10 9 8 6 5 4 3 3 4 2 4 4 4 5 4 11 14 15 15 13 11 10
9 13 14 15 15 10 10 11 14 15 15 15 13 12 11 6 8 10 9 11 11 10 11 10 9 7 6 6 6 5 3 2 3 3 3 11 14 16 16 15 14 14 13
13 13 14 15 15 11 10 10 9 9 8 7 8 8 6 6 6 7 8 11 11 10 10 9 8 6 5 3 3 4 2 2 3 3 5 13 16 17 18 16 15 15 14
16 11 12 14 14 12 11 8 6 5 5 5 8 7 5 5 4 3 2 4 4 8 4 5 4 3 4 4 4 4 4 1 3 3 5 14 15 16 17 16 15 15 14
16 15 13 12 12 11 7 8 8 8 7 6 7 9 7 4 5 4 4 4 5 4 4 4 3 4 5 5 6 6 5 3 3 2 4 12 12 14 16 17 18 16 15
17 16 16 14 13 11 11 8 8 8 8 8 8 9 8 7 7 6 6 5 5 5 6 5 5 5 5 6 5 6 6 6 3 2 3 14 13 14 16 18 19 18 17
17 17 16 16 15 13 11 12 10 8 8 7 8 9 10 8 7 8 7 7 6 6 6 6 7 6 6 5 6 6 7 6 5 5 4 6 14 14 14 17 18 18 18
19 18 20 18 15 15 13 12 9 9 9 9 9 10 11 9 9 9 8 8 8 7 7 5 5 4 4 5 8 6 6 7 6 6 5 5 6 13 13 15 16 17 18
17 19 18 17 18 16 12 11 9 9 9 9 9 9 12 11 9 7 8 8 8 7 7 7 6 6 6 5 6 7 6 5 7 7 6 5 5 5 11 17 16 17 17
22 21 20 20 21 19 15 10 10 10 9 9 8 9 12 13 11 10 7 7 8 7 7 7 6 6 6 7 7 6 6 6 7 7 8 7 7 7 6 11 19 18 18
22 22 21 19 20 19 13 9 8 7 9 9 9 10 13 12 13 10 8 7 8 7 7 7 8 6 5 8 8 7 6 6 6 7 9 8 8 9 8 8 6 9 18
21 22 23 22 20 16 14 14 11 12 9 9 10 14 13 13 14 12 9 7 9 10 10 10 8 8 8 4 2 2 4 6 7 8 5 7 9 9 7 9 7 6 6
25 25 23 24 21 19 15 14 12 10 9 9 9 11 14 15 15 14 13 10 10 9 7 9 10 4 7 6 5 2 4 5 6 8 6 8 12 8 8 8 7 8 7
26 25 24 25 24 22 21 13 7 6 3 5 10 11 12 15 15 16 15 12 12 10 10 9 10 12 9 4 7 6 1 6 2 2 7 8 10 5 7 6 7 7 6
27 27 27 27 26 24 23 18 21 17 16 14 14 11 11 13 15 15 16 14 12 11 13 12 9 11 8 10 2 9 3 5 5 4 3 3 4 6 6 5 6 7 6
27 26 26 27 25 24 24 22 19 19 16 12 11 13 13 11 15 15 16 14 15 11 14 13 11 11 10 11 9 3 9 6 3 4 9 5 3 4 5 5 5 5 6
21 26 24 25 26 24 23 23 23 23 18 13 13 13 11 11 10 15 16 16 15 14 15 13 12 13 14 11 11 10 9 6 11 7 7 10 7 5 4 4 5 5 4
Wind_Direction
165 155 152 143 132 127 119 114 107 98 100 104 105 104 100 99 100 98 94 95 99 104 107 106 105 105 103 103 100 96 92 88 86 87 85 94 95 95 93 89 88 93 92
147 153 152 144 133 130 126 123 115 110 106 104 104 104 105 101 98 95 97 102 107 108 109 110 108 108 107 106 103 104 101 95 88 85 87 93 97 95 92 87 80 79 103
144 150 151 145 136 133 131 127 123 120 114 108 104 103 101 104 105 104 105 107 109 110 110 110 110 109 110 108 110 111 109 104 97 94 91 83 91 96 95 92 88 80 79
143 148 152 145 139 134 135 134 131 127 126 118 108 105 105 106 109 114 116 118 117 114 112 111 110 110 107 101 100 103 106 104 82 95 98 101 107 105 104 101 100 100 96
142 148 150 145 143 139 139 139 138 132 131 125 122 118 115 113 113 113 114 118 121 118 119 119 118 112 104 104 105 106 107 99 76 88 106 115 110 115 114 115 114 115 110
142 149 147 147 144 143 143 143 141 141 138 135 130 128 125 125 127 124 120 123 124 124 124 126 125 119 118 116 117 116 109 83 66 82 144 138 120 124 119 125 124 121 116
143 149 149 147 146 147 147 146 145 146 145 142 137 135 133 132 131 132 130 125 119 121 125 126 121 119 117 124 134 133 124 92 62 139 149 157 146 141 138 139 135 130 131
145 150 153 149 148 151 151 150 149 148 153 146 145 142 142 141 141 142 138 131 125 124 128 137 137 132 127 131 124 129 115 55 43 107 151 195 160 150 148 148 142 141 143
142 150 157 156 153 151 153 153 153 154 153 155 151 151 149 147 147 147 145 138 138 141 143 147 150 148 151 160 156 197 52 69 223 222 172 195 177 162 159 159 159 160 162
147 154 161 166 163 157 159 156 157 158 158 158 159 157 155 155 154 155 154 150 152 153 154 157 164 177 197 222 239 252 244 245 221 194 163 180 200 176 171 168 170 173 176
157 160 164 166 169 161 158 166 160 162 163 160 162 162 156 161 163 162 165 165 166 165 169 172 179 194 228 257 266 265 271 231 234 199 181 189 194 187 182 180 179 182 187
172 173 167 170 171 162 162 163 161 167 165 167 165 168 163 161 166 168 171 173 173 175 178 183 191 210 242 274 294 315 291 321 281 227 187 186 194 196 192 191 186 187 192
172 172 174 171 173 168 165 163 164 166 168 168 168 166 163 159 164 159 160 177 172 188 190 195 202 226 240 254 275 281 280 190 277 253 175 181 195 204 201 201 199 196 197
173 177 172 171 171 176 159 171 171 170 174 176 179 173 167 168 174 169 176 174 175 175 191 196 202 221 243 252 258 274 284 293 217 267 198 181 200 212 212 211 211 208 204
176 178 178 171 175 178 167 174 175 182 180 181 179 185 178 175 182 176 183 182 188 179 188 195 206 217 232 242 250 255 271 274 220 204 214 186 206 218 220 219 220 218 213
177 179 177 182 179 175 179 180 181 182 183 181 185 191 191 188 184 186 183 186 192 191 194 196 204 214 228 228 245 240 246 250 247 199 206 203 214 219 225 229 228 226 224
185 177 179 180 181 183 186 180 184 185 181 188 192 190 195 195 192 184 190 193 196 191 189 195 206 209 225 231 240 239 238 236 233 238 203 207 213 231 236 235 235 233 231
179 184 183 181 183 187 183 184 186 185 186 190 193 192 196 199 196 193 192 200 192 186 190 195 199 212 224 223 240 245 244 234 237 231 235 214 207 213 226 236 239 237 235
184 179 184 187 185 187 187 185 188 186 190 194 190 194 199 201 196 201 205 198 188 192 195 197 203 200 213 227 232 238 242 240 241 244 233 231 223 215 217 224 229 235 234
184 184 182 185 188 186 185 177 191 190 194 193 193 199 197 203 203 197 208 194 184 196 201 199 207 203 196 215 227 233 233 235 238 234 240 237 228 228 223 224 221 232 234
191 182 187 183 187 182 188 189 189 199 196 201 198 200 198 202 202 205 210 202 199 201 202 200 200 202 223 193 181 282 280 244 243 239 225 236 243 232 216 226 229 229 231
192 190 187 191 182 188 188 192 194 186 204 201 204 205 200 199 200 205 208 207 207 213 203 193 196 193 223 174 177 112 287 305 254 234 222 229 239 238 236 228 218 223 226
194 194 190 189 187 187 192 181 175 166 134 184 203 208 204 201 201 204 207 209 206 205 214 206 203 205 222 206 204 162 141 230 344 280 241 232 235 213 236 241 234 229 221
197 195 193 191 187 190 186 184 182 190 196 206 207 203 203 201 202 204 210 208 208 211 220 215 210 215 209 221 209 231 199 151 193 311 305 282 243 235 235 234 233 236 224
195 198 196 192 193 191 186 189 190 191 201 198 203 203 205 199 204 204 206 207 212 209 221 218 212 209 212 224 216 159 228 227 214 178 270 283 310 239 232 228 225 232 231
204 196 197 194 195 190 190 190 192 195 196 192 193 202 205 206 201 206 207 210 213 215 216 215 215 212 216 219 222 216 209 202 228 217 241 251 248 257 248 233 224 219 199